Regional Weather Roundup
Issued by NWS

Home | Current Version | Previous Version | Text Only | Print | Product List | Glossary Off
Versions: 1 2 3 4 5 6 7 8 9 10 11 12 13 14 15 16 17 18 19 20 21 22 23 24 25 26 27 28 29 30 31 32 33 34 35 36 37 38 39 40 41 42 43 44 45 46 47 48 49 50

000
ASUS43 KDTX 260010
RWRMI
MICHIGAN HOURLY REGIONAL WEATHER ROUNDUP
NATIONAL WEATHER SERVICE DETROIT/PONTIAC MI
700 PM EST SUN JAN 25 2015

NOTE: "FAIR" INDICATES FEW OR NO CLOUDS BELOW 12,000 FEET WITH NO
SIGNIFICANT WEATHER AND/OR OBSTRUCTION TO VISIBILITY.

MIZ047>049-052>055-059>063-066>070-074>076-081>083-260100-
SOUTHEAST LOWER MICHIGAN

CITY           SKY/WX    TMP DP  RH WIND       PRES   REMARKS
ADRIAN         LGT SNOW  22  16  78 E10       29.92R
6HR MIN TEMP:  22; 6HR MAX TEMP:  25; 6HR PCP: TRACE;

ALMA           MOCLDY    18  13  78 NE14G21   30.01R
ANN ARBOR      CLOUDY    21   8  57 NE13      29.93R
BAD AXE        FLURRIES  17  11  78 NE8       30.04R
6HR MIN TEMP:  17; 6HR MAX TEMP:  21;

DETROIT CITY   MOCLDY    20   8  60 E14       29.97R
6HR MIN TEMP:  20; 6HR MAX TEMP:  25;

DETROIT        CLOUDY    20   8  60 NE10G23   29.96R
6HR MIN TEMP:  20; 6HR MAX TEMP:  25;

FLINT          PTCLDY    19   9  65 NE17      29.99R
6HR MIN TEMP:  19; 6HR MAX TEMP:  25;

GROSSE ILE     CLOUDY    19  10  68 NE10      29.94R
HILLSDALE      CLOUDY    24  15  69 NE12      29.87R
6HR MIN TEMP:  22; 6HR MAX TEMP:  25;

HOWELL         MOCLDY    18   7  60 NE10      29.95R
6HR MIN TEMP:  18; 6HR MAX TEMP:  24;


CITY           SKY/WX    TMP DP  RH WIND       PRES   REMARKS
JACKSON        MOCLDY    22  10  60 NE9G20    29.92R
6HR MIN TEMP:  22; 6HR MAX TEMP:  25;

LAMBERTVILLE   FLURRIES  21  12  68 NE8       29.93R
LANSING        MOCLDY    20  12  71 NE10      29.97R
6HR MIN TEMP:  20; 6HR MAX TEMP:  24;

LAPEER         NOT AVBL
MASON          MOCLDY    19   7  58 NE16      29.94R
MONROE         CLOUDY    19   9  63 NE13      29.93R
MT. CLEMENS    CLOUDY    19   9  64 NE10      29.95R
6HR MIN TEMP:  19; 6HR MAX TEMP:  26;

PONTIAC        CLOUDY    17   8  67 NE14      29.95R
6HR MIN TEMP:  17; 6HR MAX TEMP:  24;

PORT HOPE        N/A     19  11  70 NE12      30.03R
6HR MIN TEMP:  19; 6HR MAX TEMP:  21;

PORT HURON     MOCLDY    18   9  68 NE8       29.99R
TRI CITIES     CLOUDY    20  12  71 NE16      30.02R
6HR MIN TEMP:  20; 6HR MAX TEMP:  24; 6HR PCP: TRACE;

YPSILANTI      CLOUDY    23   8  52 NE17      29.95R
6HR MIN TEMP:  23; 6HR MAX TEMP:  29;

$$
MIZ043>046-050>051-056>058-064>065-071>073-077>080-260100-
SOUTHWEST LOWER MICHIGAN

CITY           SKY/WX    TMP DP  RH WIND       PRES   REMARKS
BATTLE CREEK   CLOUDY    25  11  55 NE13      29.91R
6HR MIN TEMP:  25; 6HR MAX TEMP:  27;

BENTON HARBOR  CLOUDY    24  14  65 VRB6      29.94R
6HR MIN TEMP:  24; 6HR MAX TEMP:  27;

BIG RAPIDS     PTCLDY    19   6  57 NE5       29.99R
6HR MIN TEMP:  19; 6HR MAX TEMP:  23;

COLDWATER      LGT SNOW  23  19  84 NE5       29.89R
6HR MIN TEMP:  23; 6HR MAX TEMP:  26;

HOLLAND        PTCLDY    22  10  60 NE9G18    29.98R
6HR MIN TEMP:  22; 6HR MAX TEMP:  26;

GRAND RAPIDS   PTCLDY    19  11  70 NE16      29.97R
6HR MIN TEMP:  19; 6HR MAX TEMP:  22;

KALAMAZOO      CLOUDY    24  12  60 NE10G18   29.92R
6HR MIN TEMP:  24; 6HR MAX TEMP:  27; 6HR PCP: TRACE;

MARSHALL       CLOUDY    21  11  65 NE9       29.91R
MUSKEGON       PTCLDY    22   8  55 NE9       30.01R
6HR MIN TEMP:  22; 6HR MAX TEMP:  26;

$$
MIZ016>042-260100-
NORTHERN LOWER MICHIGAN

CITY           SKY/WX    TMP DP  RH WIND       PRES   REMARKS
ALPENA         MOCLDY     8   2  76 N5        30.09R
6HR MIN TEMP:   8; 6HR MAX TEMP:  17;

BEAVER ISLAND  CLEAR      1  -5  78 CALM      30.09R
6HR MIN TEMP:   1; 6HR MAX TEMP:  13;

BELLAIRE       PTCLDY    13   5  69 CALM      30.07S
6HR MIN TEMP:  13; 6HR MAX TEMP:  20;

CADILLAC       MOCLDY    13   0  54 CALM      29.98R
CHARLEVOIX     PTCLDY    13   6  74 N6        30.10S
6HR MIN TEMP:  13; 6HR MAX TEMP:  15;

FRANKFORT      CLEAR     15  10  79 NE8       30.05S
GAYLORD        PTCLDY    11   2  67 NE5       30.00R
6HR MIN TEMP:  11; 6HR MAX TEMP:  16;

GRAYLING       PTCLDY     8  -1  68 NE5       30.02R
HARBOR SPRINGS PTCLDY    10   2  69 N3        30.08R
HOUGHTON LAKE  MOCLDY    13   3  64 NE3       30.02R
6HR MIN TEMP:  12; 6HR MAX TEMP:  19;

MANISTEE       PTCLDY    16   1  53 NE3       30.05R
OSCODA         CLOUDY    14   7  73 N7        30.06R
PELLSTON       PTCLDY     4  -2  76 CALM      30.09R
6HR MIN TEMP:   4; 6HR MAX TEMP:  17;

TRAVERSE CITY  PTCLDY    15   5  64 SE3       30.04R
6HR MIN TEMP:  15; 6HR MAX TEMP:  19;

$$
MIZ007>008-015-260100-
EASTERN UPPER MICHIGAN

CITY           SKY/WX    TMP DP  RH WIND       PRES   REMARKS
KINROSS        PTCLDY     3  -2  78 N3        30.08S
6HR MIN TEMP:   3; 6HR MAX TEMP:  21;

MACKINAC ISLAN PTCLDY     6  -1  73 NE6       30.08R
6HR MIN TEMP:   6; 6HR MAX TEMP:  14;

NEWBERRY       CLEAR      5  -4  66 NE6       30.06S
S. S. MARIE    PTCLDY     2  -7  66 CALM      30.09S
6HR MIN TEMP:   2; 6HR MAX TEMP:  12;

$$
MIZ004>006-011>014-085-260100-
CENTRAL UPPER MICHIGAN

CITY           SKY/WX    TMP DP  RH WIND       PRES   REMARKS
MANISTIQUE     PTCLDY     7   3  83 MISG      30.07R
6HR MIN TEMP:   6; 6HR MAX TEMP:  18;

ESCANABA       CLEAR     16   7  67 NE3       30.07R
6HR MIN TEMP:  16; 6HR MAX TEMP:  19;

MENOMINEE      CLEAR     14   9  79 CALM      30.07R
6HR MIN TEMP:  14; 6HR MAX TEMP:  19;

SAWYER-GWINN   LGT SNOW  16  12  86 CALM      30.03R
$$
MIZ001>003-009>011-084-260100-
WESTERN UPPER MICHIGAN

CITY           SKY/WX    TMP DP  RH WIND       PRES   REMARKS
IRON MOUNTAIN  CLEAR     11   4  73 CALM      30.01S
6HR MIN TEMP:  11; 6HR MAX TEMP:  21;

HOUGHTON       PTCLDY     7   3  84 CALM      30.04R
6HR MIN TEMP:   5; 6HR MAX TEMP:  18;

COPPER HARBOR    N/A      8   2  76 W6        30.10R
6HR MIN TEMP:   8; 6HR MAX TEMP:  17;

IRONWOOD       PTCLDY    12   5  73 CALM      30.00R
6HR MIN TEMP:  12; 6HR MAX TEMP:  19;

$$

ABBREVIATIONS USED IN REMARKS
   TC - TEMPERATURE IN CELSIUS
  WCI - WIND CHILL INDEX
   HX - HEAT INDEX
  VSB - VISIBILITY



USA.gov is the U.S. government's official web portal to all federal, state and local government web resources and services.